Location: Avenches
(46.8809°N, 7.0410°E)
Time: 08:31:03
(UTC+00:00)

X-37B - Visible Passes

Search period start: 06 March 2021 00:00
Search period end: 16 March 2021 00:00
Orbit: 383 x 391 km, 45.0° (Epoch: 27 February)

Date Brightness Start Highest point End Pass type
(mag) Time Alt. Az. Time Alt. Az. Time Alt. Az.
11 Mar 2.8 19:17:13 10° SSW 19:18:23 17° S 19:18:23 17° S visible
12 Mar 2.7 18:19:45 10° S 18:21:38 15° SSE 18:23:05 12° ESE visible
12 Mar 3.3 19:54:42 10° WSW 19:55:23 15° SW 19:55:23 15° SW visible
13 Mar 1.5 18:56:36 10° SW 18:59:31 32° SSE 18:59:58 31° SE visible
14 Mar 1.6 19:34:26 10° WSW 19:36:45 40° SW 19:36:45 40° SW visible
15 Mar 1.1 18:36:12 10° WSW 18:39:18 44° SSE 18:41:10 20° E visible
15 Mar 3.4 20:12:35 10° W 20:13:28 17° W 20:13:28 17° W visible
